Header for Extended Forecast Station List Page

Search by: ID | Name | Date | Parm | Value | Avg | % Avg
Sort by: ID | Name | Date | Parm | Value | Avg | % Avg

Enter search or view all records.

Click on id for station plot
#IDNameDateParmValueAvg% Avg
0BULO3BULLY CREEK-BULLY CREEK DAM03-30-2020INFLOW (KAF)3379
1MYKO3MCKAY CREEK-NEAR PILOT ROCK03-30-2020DISCHARGE (KAF)172183
2BERO3MALHEUR-AGENCY VALLEY DAM03-30-2020INFLOW (KAF)364091
3LWRI1LITTLE WOOD-LITTLE WOOD DAM03-30-2020INFLOW (KAF)377449
4WRMO3MALHEUR-WARM SPRINGS DAM03-30-2020INFLOW (KAF)4739121
5RIDI1WILLOW CREEK-RIRIE DAM03-30-2020INFLOW (KAF)5742135
6PIHI1PORTNEUF-AT POCATELLO03-30-2020DISCHARGE (KAF)667984
7DLGM8CLARK FORK-AT DEER LODGE03-30-2020DISCHARGE (KAF)728091
8GIBO3UMATILLA-NEAR GIBBON03-30-2020DISCHARGE (KAF)7866118
9MACI1BIG LOST-MACKAY RESERVOIR NEAR MACKAY03-30-2020INFLOW (KAF)8015352
10HWRI1BIG LOST-AT HOWELL RANCH NEAR CHILLY03-30-2020DISCHARGE (KAF)8915358
11DEDI1DEADWOOD-NEAR LOWMAN03-30-2020INFLOW (KAF)9212872
12MAGI1BIG WOOD-MAGIC DAM03-30-2020INFLOW (KAF)9323739
13KADW1KACHESS-KACHESS DAM03-30-2020INFLOW (KAF)9810097
14EASW1YAKIMA-AT EASTON03-30-2020DISCHARGE (KAF)10394110
15KEDW1YAKIMA-KEECHELUS LAKE03-30-2020INFLOW (KAF)112108104
16TNAW1TEANAWAY-BELOW FORKS03-30-2020DISCHARGE (KAF)116114102
17SATI1ST MARIES-NEAR SANTA03-30-2020DISCHARGE (KAF)12112994
18BUDW1BUMPING-BUMPING LAKE DAM03-30-2020INFLOW (KAF)122110111
19HALI1BIG WOOD-AT HAILEY03-30-2020DISCHARGE (KAF)12922258
20UMAO3UMATILLA-NEAR UMATILLA03-30-2020DISCHARGE (KAF)12983156
21TCHW1WALLA WALLA-NEAR TOUCHET03-30-2020DISCHARGE (KAF)139113122
22HOTI1BRUNEAU-NEAR HOT SPRINGS03-30-2020DISCHARGE (KAF)14417582
23PDTO3UMATILLA-AT PENDLETON03-30-2020DISCHARGE (KAF)159131122
24OWYO3OWYHEE-OWYHEE DAM03-30-2020INFLOW (KAF)16629456
25ARDW1ENTIAT-NEAR ARDENVOIR03-30-2020DISCHARGE (KAF)16719088
26HODO3HOOD-NEAR TUCKER BRIDGE03-30-2020DISCHARGE (KAF)18421685
27IPDI1HENRYS FORK-ISLAND PARK DAM03-30-2020INFLOW (KAF)19620098
28RILW1TIETON-RIMROCK LAKE NEAR RIMROCK03-30-2020INFLOW (KAF)197185106
29STRM8ST. REGIS-NEAR ST. REGIS03-30-2020DISCHARGE (KAF)20424783
30RCCM8ROCK CREEK-NEAR CLINTON03-30-2020DISCHARGE (KAF)22724891
31DRMM8CLARK FORK-NR DRUMMOND03-30-2020DISCHARGE (KAF)234MM
32WSRI1WEISER-NEAR WEISER03-30-2020DISCHARGE (KAF)24835869
33UNDW1WHITE SALMON-NEAR UNDERWOOD03-30-2020DISCHARGE (KAF)25131480
34ARAI1SF BOISE-ANDERSON RANCH DAM03-30-2020INFLOW (KAF)31249663
35CHEI1FALL RIVER-NEAR CHESTER03-30-2020DISCHARGE (KAF)317315101
36PARI1BOISE-NEAR PARMA03-30-2020DISCHARGE (KAF)35041385
37CSDI1NF PAYETTE-CASCADE DAM03-30-2020INFLOW (KAF)36147676
38TEAI1TETON-NEAR ST. ANTHONY03-30-2020DISCHARGE (KAF)362329110
39PITW1KLICKITAT-NEAR PITT03-30-2020DISCHARGE (KAF)36546778
40CLUW1CLE ELUM-CLE ELUM LAKE03-30-2020INFLOW (KAF)380367104
41BIGI1BOISE-AT GLENWOOD BRIDGE03-30-2020DISCHARGE (KAF)38543489
42CLFW1NACHES-NEAR CLIFFDEL03-30-2020DISCHARGE (KAF)398349114
43PARW1YAKIMA-NEAR PARKER03-30-2020DISCHARGE (KAF)524471111
44MONO3NF JOHN DAY-AT MONUMENT03-30-2020DISCHARGE (KAF)542536101
45NACW1NACHES-NEAR NACHES03-30-2020DISCHARGE (KAF)575471122
46ANTI1HENRYS FORK-AT ST. ANTHONY03-30-2020DISCHARGE (KAF)58961396
47JLKW4SNAKE-JACKSON LAKE AT DAM03-30-2020INFLOW (KAF)67273691
48EMMI1PAYETTE-NEAR EMMETT03-30-2020DISCHARGE (KAF)673118157
49REXI1HENRYS FORK-AT REXBURG03-30-2020DISCHARGE (KAF)69071397
50PRTI1PRIEST-NEAR PRIEST RIVER03-30-2020DISCHARGE (KAF)70876592
51SERO3JOHN DAY-AT SERVICE CK03-30-2020DISCHARGE (KAF)71675595
52UMTW1YAKIMA-AT UMTANUM03-30-2020DISCHARGE (KAF)758755100
53PATW1METHOW-NEAR PATEROS03-30-2020DISCHARGE (KAF)76681894
54KIOW1YAKIMA-AT KIONA03-30-2020DISCHARGE (KAF)76784691
55BONM8BLACKFOOT-NEAR BONNER03-30-2020DISCHARGE (KAF)796777102
56CHDW1CHELAN-LAKE CHELAN DAM03-30-2020INFLOW (KAF)88695193
57MILI1SNAKE-AT MILNER03-30-2020DISCHARGE (KAF)988411240
58BITM8BITTERROOT-NEAR MISSOULA03-30-2020DISCHARGE (KAF)1075119190
59LUCI1BOISE-LUCKY PEAK DAM03-30-2020INFLOW (KAF)1128MM
60PESW1WENATCHEE-AT PESHASTIN03-30-2020DISCHARGE (KAF)1214137788
61MODO3DESCHUTES-AT MOODY NR BIGGS03-30-2020DISCHARGE (KAF)1232136191
62TONW1OKANOGAN-NEAR TONASKET03-30-2020DISCHARGE (KAF)1252140789
63ABOM8CLARK FORK-ABOVE MISSOULA03-30-2020DISCHARGE (KAF)1308138195
64TRYO3GRANDE RONDE-TROY03-30-2020DISCHARGE (KAF)13381204111
65FCFM8NF FLATHEAD-NEAR COLUMBIA FALLS03-30-2020DISCHARGE (KAF)1520154498
66WGCM8MF FLATHEAD-NEAR WEST GLACIER03-30-2020DISCHARGE (KAF)16491508109
67JKSW4SNAKE-NEAR JACKSON03-30-2020DISCHARGE (KAF)17261480117
68HHWM8SF FLATHEAD-HUNGRY HORSE DAM03-30-2020INFLOW (KAF)19451880103
69LAUW1KETTLE-AT LAURIER03-30-2020DISCHARGE (KAF)21181702124
70ALPW4SNAKE-NEAR ALPINE03-30-2020DISCHARGE (KAF)21451925111
71SPOW1SPOKANE-AT SPOKANE03-30-2020DISCHARGE (KAF)2230MM
72DWRI1NF CLEARWATER-DWORSHAK DAM03-30-2020INFLOW (KAF)2303260588
73COEI1COEUR D ALENE-COEUR D ALENE LAKE03-30-2020INFLOW (KAF)2326252092
74BFTI1SNAKE-NEAR BLACKFOOT03-30-2020DISCHARGE (KAF)23641721137
75BELM8CLARK FORK-BELOW MISSOULA03-30-2020DISCHARGE (KAF)2383261091
76SNAI1SNAKE-AT BLACKFOOT03-30-2020DISCHARGE (KAF)24121804134
77LLKW1SPOKANE-AT LONGLAKE03-30-2020INFLOW (KAF)2438299981
78SWAI1SNAKE-BELOW SWAN FALLS03-30-2020DISCHARGE (KAF)26152382110
79AFRI1SNAKE-AMERICAN FALLS RESERVOIR03-30-2020INFLOW (KAF)28542348122
80SRGM8CLARK FORK-AT ST REGIS03-30-2020DISCHARGE (KAF)2899349483
81SHYI1SNAKE-NEAR SHELLEY03-30-2020DISCHARGE (KAF)29172234131
82PLDI1SF SNAKE-PALISADES DAM03-30-2020INFLOW (KAF)30562796109
83SIFI1SNAKE-AB EAGLE ROCK NR IDAHO FALLS03-30-2020DISCHARGE (KAF)31242379131
84HEII1SNAKE-NEAR HEISE03-30-2020DISCHARGE (KAF)36572810130
85LEOI1KOOTENAI-AT LEONIA03-30-2020DISCHARGE (KAF)3722507373
86WHBI1SALMON-AT WHITEBIRD03-30-2020DISCHARGE (KAF)3963553972
87WEII1SNAKE-AT WEISER03-30-2020DISCHARGE (KAF)4199479788
88ORFI1CLEARWATER-AT OROFINO03-30-2020DISCHARGE (KAF)44894444101
89BRNI1SNAKE-BROWNLEE DAM03-30-2020INFLOW (KAF)4585519488
90CFMM8FLATHEAD-AT COLUMBIA FALLS03-30-2020DISCHARGE (KAF)46844061115
91LYDM8KOOTENAI-LIBBY DAM03-30-2020INFLOW (KAF)4951551090
92KERM8FLATHEAD-KERR DAM03-30-2020INFLOW (KAF)52615079104
93SPDI1CLEARWATER-AT SPALDING03-30-2020DISCHARGE (KAF)5972672389
94NOXM8CLARK FORK-NOXON RAPIDS DAM03-30-2020INFLOW (KAF)7527867587
95CABI1CLARK FORK-CABINET GORGE DAM03-30-2020INFLOW (KAF)8275916690
96ALFW1PEND OREILLE-ALBENI FALLS DAM03-30-2020INFLOW (KAF)94731074388
97ANAW1SNAKE-NEAR ANATONE03-30-2020DISCHARGE (KAF)95871292774
98LGDW1SNAKE-LOWER GRANITE DAM03-30-2020INFLOW (KAF)155591970479
99LGSW1SNAKE-LITTLE GOOSE DAM03-30-2020INFLOW (KAF)155591970379
100LMNW1SNAKE-LOWER MONUMENTAL DAM03-30-2020INFLOW (KAF)156261981679
101IHDW1SNAKE-ICE HARBOR DAM03-30-2020INFLOW (KAF)156271968379
102CIBW1COLUMBIA-AT INTL BOUNDARY03-30-2020DISCHARGE (KAF)26944MM
103CHJW1COLUMBIA-CHIEF JOSEPH DAM03-30-2020INFLOW (KAF)278233082790
104WELW1COLUMBIA-WELLS DAM03-30-2020INFLOW (KAF)298383346089
105RRHW1COLUMBIA-ROCKY REACH DAM03-30-2020INFLOW (KAF)304943397290
106GCDW1COLUMBIA-GRAND COULEE DAM03-30-2020INFLOW (KAF)315663993379
107PRWW1COLUMBIA-PRIEST RAPIDS DAM03-30-2020INFLOW (KAF)318024112577
108WANW1COLUMBIA-WANAPUM DAM03-30-2020INFLOW (KAF)318064034879
109MCDW1COLUMBIA-MCNARY DAM03-30-2020INFLOW (KAF)483026263877
110JDAO3COLUMBIA-JOHN DAY DAM03-30-2020INFLOW (KAF)502256470578
111TDAO3COLUMBIA-THE DALLES DAM03-30-2020INFLOW (KAF)504455827387
112BONO3COLUMBIA-BONNEVILLE DAM03-30-2020INFLOW (KAF)512466020485
113BFEI1KOOTENAI-AT BONNERS FERRY03-30-2020STAGE (FT)MMM
114HOPI1PEND OREILLE-PEND OREILLE LAKE NR HOPE03-30-2020LAKE ELEVATION (FT)MMM
115SJMI1ST JOE-AT ST MARIES03-30-2020STAGE (FT)MMM